Regional Weather Roundup
Issued by NWS

Home | Current Version | Previous Version | Text Only | Print | Product List | Glossary On
Versions: 1 2 3 4 5 6 7 8 9 10 11 12 13 14 15 16 17 18 19 20 21 22 23 24 25 26 27 28 29 30 31 32 33 34 35 36 37 38 39 40 41 42 43 44 45 46 47 48 49 50
000
ASUS43 KLOT 032321
RWRIL

ILLINOIS REGIONAL WEATHER ROUNDUP
NATIONAL WEATHER SERVICE CHICAGO/ROMEOVILLE IL
600 PM CDT SUN MAY 03 2015

NOTE: "FAIR" INDICATES FEW OR NO CLOUDS BELOW 12,000 FEET WITH NO
SIGNIFICANT WEATHER AND/OR OBSTRUCTIONS TO VISIBILITY.

* THESE STATIONS ARE NOT UNDER NWS QUALITY CONTROL. THEY ALSO MAY NOT
  REPORT WEATHER SUCH AS PRECIPITATION OR FOG.

ILZ001-002-007-009-015-016-024-040000-
NORTHWEST ILLINOIS

CITY           SKY/WX    TMP DP  RH WIND       PRES   REMARKS
MOLINE         SUNNY     81  54  39 SW12      29.84R HX  81
STERLING*      MOSUNNY   68  61  77 E14       29.88F
SAVANNA*       SUNNY     72  60  67 E10       29.87S
$$

ILZ003-004-008-010-011-017-018-040000-
NORTH CENTRAL ILLINOIS

CITY           SKY/WX    TMP DP  RH WIND       PRES   REMARKS
ROCKFORD       CLOUDY    64  58  80 E9        29.93F THUNDER
FREEPORT*      PTSUNNY   65  60  81 SE16      29.91S
ROCHELLE*      CLOUDY    63  58  86 E9G20     29.92R
DE KALB*       TSTM      59  57  95 N14       29.95R
PERU*          TSTM      66  57  71 SW14G31   29.91R
$$

ILZ005-006-012>014-019>023-040000-
NORTHEAST ILLINOIS

CITY           SKY/WX    TMP DP  RH WIND       PRES   REMARKS
CHICAGO-OHARE  LGT RAIN  68  55  63 NW21      29.93R
CHICAGO-MIDWAY CLOUDY    80  46  30 SW10G20   29.91R
AURORA         LGT RAIN  63  58  83 NE15      29.92S
LANSING*       CLOUDY    77  38  24 S13       29.93R
JOLIET*        CLOUDY    78  50  37 S6G17     29.91S
WAUKEGAN       LGT RAIN  64  57  78 W8        29.94R
DUPAGE AIRPORT RAIN      64  58  80 NW13      29.94R
KANKAKEE*      PTSUNNY   78  46  32 S18       29.94R
WHEELING       LGT RAIN  71  52  50 NW20G26   29.94R
MORRIS*        CLOUDY    78  46  31 SW12      29.90R
ROMEOVILLE*    LGT RAIN  76  45  34 SW17      29.91S
NORTHERLY ISL    N/A     79  42  26 SW9         N/A
$$

LMZ740>746-040000-
SOUTHERN LAKE MICHIGAN

STATION/POSITION SKY/WX   TEMP    WIND        PRES    VSBY  WAVE
                          AIR SEA DIR/SP/G                  HT/PER
                          (F)     (DEG/KT/KT) (MB)    (MI)  (FT/S)
HARRISON CRIB              77     210/ 12/ 15   N/A
BURNHAM HARBOR             79     190/  9/ 14   N/A
CALUMET HARBOR             80     210/ 17/ 22   N/A
BURNS HARBOR               79     190/ 12/ 17 1013.5F
MICHIGAN CITY              78     160/  9/ 13   N/A
MICHIGAN CITY 6N           66 51  190/  8/ 10   N/A           1/ 2
ST. JOSEPH                 67 51  210/  6/  8   N/A           1
$$

ILZ025>027-034>036-040-047-049-050-058-095>099-040000-
WEST-CENTRAL ILLINOIS

CITY           SKY/WX    TMP DP  RH WIND       PRES   REMARKS
QUINCY         MOSUNNY   78  54  43 S18G25    29.88S
GALESBURG*     MOSUNNY   81  55  41 S21       29.87S HX  80
MACOMB*        MOSUNNY   83  52  33 S17G23    29.89S HX  82
JACKSONVILLE*  SUNNY     85  50  29 SW21      29.90S HX  82
PITTSFIELD*    MOSUNNY   81  51  34 S14       29.91S HX  80
$$

ILZ028>032-037-038-041>044-048-051>054-059>061-040000-
CENTRAL ILLINOIS

CITY           SKY/WX    TMP DP  RH WIND       PRES   REMARKS
PONTIAC        PTSUNNY   82  48  30 S14       29.92R HX  80
BLOOMINGTON    MOSUNNY   81  49  32 SW21G28   29.93R HX  80
DECATUR        SUNNY     80  48  32 S22       29.95R
PEORIA         MOSUNNY   84  51  31 SW18G25   29.88S HX  82
LACON*         PTSUNNY   81  50  33 SW14G21   29.87S HX  80
LINCOLN*       SUNNY     83  47  27 S10G21    29.89S HX  81
SPRINGFIELD    SUNNY     83  49  30 S15G26    29.92R HX  81
TAYLORVILLE    MOSUNNY   79  46  31 S17G28    29.95R
$$

ILZ033-039-045-046-055>057-062-063-040000-
EAST-CENTRAL ILLINOIS

CITY           SKY/WX    TMP DP  RH WIND       PRES   REMARKS
CHAMPAIGN      MOSUNNY   81  43  26 S22G30    29.95S
DANVILLE*      CLOUDY    79  44  28 S17G25    29.95R
RANTOUL*       MOSUNNY   82  45  27 S18G25    29.95S HX  80
MATTOON        SUNNY     77  45  32 S13G20    29.97S
PARIS*         MOSUNNY   77  44  30 S14       29.99S
$$

ILZ079-100>102-040000-
SOUTHWEST ILLINOIS

CITY           SKY/WX    TMP DP  RH WIND       PRES   REMARKS
BELLEVILLE     PTSUNNY   78  51  38 SE10      29.95S
CAHOKIA*       MOSUNNY   81  47  30 S12G20    29.94S HX  80
SPARTA*        MOSUNNY   77  48  36 S12G21    29.99F
$$

ILZ064>066-069>071-074>076-080>082-084>086-088>090-092>094-040000-
SOUTH-CENTRAL ILLINOIS

CITY           SKY/WX    TMP DP  RH WIND       PRES   REMARKS
CARBONDALE     MOSUNNY   76  47  35 S10       30.00F
CAIRO*         SUNNY     79  46  30 S12G17    30.03R
EFFINGHAM*     SUNNY     78  40  25 S13       30.00S
MARION         MOSUNNY   79  48  34 S12       30.02S
MT. VERNON     MOSUNNY  N/A N/A N/A S12       30.01S
CENTRALIA*     MOSUNNY   80  42  26 SW16      29.99S
SALEM*         MOSUNNY   81  41  23 S18       29.99S
METROPOLIS*    SUNNY     79  48  33 S6        30.03S
$$

ILZ067-068-072-073-078-083-087-091-040000-
SOUTHEAST ILLINOIS

CITY           SKY/WX    TMP DP  RH WIND       PRES   REMARKS
LAWRENCEVILLE  SUNNY     79  45  29 S16       30.01S
FLORA*         SUNNY     78  44  30 S14       30.00S
FAIRFIELD*     SUNNY     78  44  29 S13       30.00S
HARRISBURG*    SUNNY     78  42  27 SW13      30.03S
ROBINSON*      SUNNY     79  45  29 S15G25    30.01S
CARMI*         SUNNY     78  40  25 S15       30.02R
$$

ABBREVIATIONS USED IN REMARKS
   TC - TEMPERATURE IN CELSIUS
  WCI - WIND CHILL INDEX
   HX - HEAT INDEX
  VSB - VISIBILITY
$$



USA.gov is the U.S. government's official web portal to all federal, state and local government web resources and services.